Lær å fly hos oss!

Oslo Flyveklubb har i mange år utdannet flygere til privatflygersetifikat PPL(A). Skolen har godkjenning for å drive utdanning til teoriundervisning til PPL(A), privatflygersertifikat PPL (A) og mørkeflyging.

Gi bort en flytur i gave

På en introduksjonstur vil kandidaten være med på forberedelser til, og gjennomføring av en flytur på en times varighet med en av våre instruktører.

Hvor vi holder til?

Flyplassen ligger i Lillestrøm 10 minutter med tog fra Oslo. Følg storgata fra Lillestrøms sentrum så vill man se plassen på venstre side.
Metar/TAF Gardermoen:

ENGM 181750Z 03008KT 5000 -RA BR OVC002 02/02 Q1009 TEMPO 2500 -RA BR BKN004

TAF ENGM 181700Z 1818/1918 03008KT 6000 -RA FEW003 BKN008 TEMPO 1818/1912 2000 RADZ BR OVC003 BECMG 1909/1911 18010KT TEMPO 1913/1917 FEW008 BKN020